Regional Weather Roundup
Issued by NWS Goodland, KS

Home | Current Version | Previous Version | Text Only | Print | Product List | Glossary Off
Versions: 1 2 3 4 5 6 7 8 9 10 11 12 13 14 15 16 17 18 19 20 21 22 23 24 25 26 27 28 29 30 31 32 33 34 35 36 37 38 39 40 41 42 43 44 45 46 47 48 49 50

000
ASUS43 KGLD 171659
RWRGLD

GOODLAND FORECAST AREA HOURLY WEATHER ROUNDUP
NATIONAL WEATHER SERVICE GOODLAND KS
1100 AM MDT THU AUG 17 2017

...OFFICIAL OBSERVATIONS...

CITY           SKY/WX    TMP DP  RH WIND       PRES   REMARKS
GOODLAND KS    PTSUNNY   76  59  55 S9        30.12F
HILL CITY KS   SUNNY     81  53  37 W8        30.08S
IMPERIAL NEB   SUNNY     81  55  40 SW10      30.07F
MCCOOK NEB     SUNNY     79  56  45 S6        30.06F
AKRON CO       SUNNY     77  50  38 W10       30.12F
BURLINGTON CO  SUNNY     79  58  48 S15G24    30.15F
LIMON CO       SUNNY     74  54  49 S13G20    30.19F
$$

...UNOFFICIAL OBSERVATIONS...

CITY           SKY/WX    TMP DP  RH WIND       PRES   REMARKS
LENORA KS        N/A     79  32  18 S6          N/A
NORTON KS      SUNNY     79  48  34 SW8       30.06F
SHARON SPRINGS   N/A     77  62  60 S8G15       N/A
TRENTON NEB      N/A     79  32  18 W5          N/A
KIT CARSON CO    N/A     75  58  55 MISG        N/A
YUMA CO        FAIR      77  46  33 S16G25    30.11S
$$



USA.gov is the U.S. government's official web portal to all federal, state and local government web resources and services.